Regional Weather Roundup
Issued by NWS Jackson, KY

Home | Current Version | Previous Version | Text Only | Print | Product List | Glossary On
Versions: 1 2 3 4 5 6 7 8 9 10 11 12 13 14 15 16 17 18 19 20 21 22 23 24 25 26 27 28 29 30 31 32 33 34 35 36 37 38 39 40 41 42 43 44 45 46 47 48 49 50
000
ASUS43 KJKL 060710
RWRJKL

EAST KENTUCKY HOURLY WEATHER ROUNDUP
NATIONAL WEATHER SERVICE JACKSON KY
200 AM EST FRI MAR 06 2015

NOTE: "FAIR" INDICATES FEW OR NO CLOUDS BELOW 12,000 FEET WITH
NO SIGNIFICANT WEATHER AND/OR OBSTRUCTIONS TO VISIBILITY.

* THESE REPORTS ARE NOT UNDER NWS QUALITY CONTROL AND MAY NOT
  REPORT WEATHER SUCH AS PRECIPITATION AND FOG.

KYZ079-080-083-085-087-088-110-112-115-119-120-060800
...EASTERN KENTUCKY...

CITY           SKY/WX    TMP DP  RH WIND       PRES   REMARKS
JACKSON        MOCLDY    12   6  77 CALM      30.46F
LONDON         CLEAR      7   1  76 N3        30.48S
SOMERSET*      PTCLDY     7   3  85 CALM      30.53R
MONTICELLO*    FOG       -7 -11  83 CALM      30.54R VSB<1/4
MIDDLESBORO*   PTCLDY    16  10  77 CALM      30.47S
HAZARD APT*    MOSUNNY    9   7  92 CALM      30.48F FOG
BLACK MTN*       N/A      3   1  92 N5          N/A  WCI  -6
PIKEVILLE APT* CLEAR     12  10  92 N3        30.45F
BIG SANDY*     MOSUNNY   11  10  94 CALM      30.49S
MOREHEAD APT*  PTSUNNY    7   3  85 CALM      30.53F
$$

KYZ035-036-041-042-044-050-067-078-099-060800
...CENTRAL KENTUCKY...

CITY           SKY/WX    TMP DP  RH WIND       PRES   REMARKS
MT STERLING*   PTCLDY    -2  -6  84 CALM      30.52S
FLEMING/MASON* CLEAR      5   3  92 E3        30.53F
DANVILLE*      PTCLDY     3   0  85 CALM      30.53R FOG
RICHMOND*      PTCLDY     1  -2  85 CALM      30.51R
LEXINGTON      PTCLDY     6   2  83 NE3       30.52R
FRANKFORT      PTCLDY    -1  -6  79 N3        30.54R
$$

KYZ091>093-OHZ055-061-077-WVZ005-015-034-035-042-060800
...SOUTHERN OHIO/WEST VIRGINIA...

CITY           SKY/WX    TMP DP  RH WIND       PRES   REMARKS
COVINGTON      PTCLDY     8   3  80 CALM      30.53S
COLUMBUS       PTCLDY     5   1  83 CALM      30.53R
DAYTON         PTCLDY    11   5  77 CALM      30.52R
WILMINGTON     PTCLDY     1  -3  83 CALM      30.51R
HUNTINGTON     FOG        8   5  87 CALM      30.53R VSB 1/4
CHARLESTON     MOCLDY    13   9  84 N3        30.50R
PINEVILLE*     LGT SNOW  10  10  96 MISG      30.46R
BECKLEY        PTCLDY     9   5  84 N10       30.33S WCI  -5
BLUEFIELD      CLOUDY    12   5  73 VRB5      30.31R WCI   4
$$

VAZ002-007-008-TNZ017-027-036-066-071-060800
...SOUTHWEST VIRGINIA/EAST TENNESSEE...

CITY           SKY/WX    TMP DP  RH WIND       PRES   REMARKS
WISE*          LGT SNOW  12  10  92 N6        30.35R WCI   3
JONESVILLE*    MOSUNNY   14  10  85 CALM      30.45S
ABINGDON*      FLURRIES  19  14  80 CALM      30.37R
BRISTOL        CLOUDY    20  14  77 N6        30.42R WCI  12
KNOXVILLE      CLOUDY    21  16  81 N10       30.44R WCI  10
OAK RIDGE      CLOUDY    20  12  71 VRB5      30.47S WCI  13
CROSSVILLE     PTCLDY    15  10  80 NE7       30.40S WCI   5
NASHVILLE      PTCLDY    14   6  70 N8        30.55S WCI   3
$$

...KEY TO REMARKS...
VSB - VISIBILITY IN MILES
WCI - WIND CHILL INDEX
HX  - HEAT INDEX

$$



USA.gov is the U.S. government's official web portal to all federal, state and local government web resources and services.